TimeCDT,TemperatureF,Dew PointF,Humidity,Sea Level PressureIn,VisibilityMPH,Wind Direction,Wind SpeedMPH,Gust SpeedMPH,PrecipitationIn,Events,Conditions,WindDirDegrees,DateUTC
12:54 AM,75.0,66.9,76,30.11,10.0,Calm,Calm,-,N/A,,Clear,0,2013-08-29 05:54:00
1:54 AM,73.9,68.0,82,30.10,10.0,Calm,Calm,-,N/A,,Clear,0,2013-08-29 06:54:00
2:54 AM,73.0,68.0,84,30.09,10.0,Calm,Calm,-,N/A,,Clear,0,2013-08-29 07:54:00
3:54 AM,72.0,69.1,91,30.09,7.0,Calm,Calm,-,N/A,,Clear,0,2013-08-29 08:54:00
4:54 AM,71.1,68.0,90,30.09,6.0,Calm,Calm,-,N/A,,Clear,0,2013-08-29 09:54:00
5:54 AM,72.0,69.1,91,30.11,4.0,Calm,Calm,-,N/A,,Partly Cloudy,0,2013-08-29 10:54:00
6:20 AM,71.6,68.0,88,30.03,2.5,Calm,Calm,-,N/A,,Clear,0,2013-08-29 11:20:00
6:54 AM,72.0,68.0,87,30.12,1.8,Calm,Calm,-,N/A,,Partly Cloudy,0,2013-08-29 11:54:00
7:21 AM,71.6,69.8,94,30.04,3.0,Calm,Calm,-,N/A,,Clear,0,2013-08-29 12:21:00
7:54 AM,73.9,70.0,87,30.13,4.0,Calm,Calm,-,N/A,,Clear,0,2013-08-29 12:54:00
8:54 AM,81.0,73.0,77,30.14,10.0,Calm,Calm,-,N/A,,Clear,0,2013-08-29 13:54:00
9:54 AM,87.1,71.1,59,30.12,10.0,Calm,Calm,-,N/A,,Clear,0,2013-08-29 14:54:00
10:54 AM,89.1,70.0,53,30.12,10.0,Calm,Calm,-,N/A,,Partly Cloudy,0,2013-08-29 15:54:00
11:54 AM,93.0,68.0,44,30.10,10.0,Variable,4.6,-,N/A,,Mostly Cloudy,0,2013-08-29 16:54:00
12:54 PM,93.9,66.0,40,30.09,10.0,Calm,Calm,-,N/A,,Clear,0,2013-08-29 17:54:00
1:54 PM,95.0,64.0,36,30.07,10.0,Variable,4.6,-,N/A,,Partly Cloudy,0,2013-08-29 18:54:00
2:54 PM,93.0,63.0,37,30.05,10.0,Variable,3.5,-,N/A,,Mostly Cloudy,0,2013-08-29 19:54:00
3:54 PM,93.9,63.0,36,30.04,10.0,Variable,3.5,-,N/A,,Partly Cloudy,0,2013-08-29 20:54:00
4:54 PM,93.9,64.0,37,30.03,10.0,Calm,Calm,-,N/A,,Clear,0,2013-08-29 21:54:00
5:54 PM,93.9,64.0,37,30.03,10.0,Variable,3.5,-,N/A,,Clear,0,2013-08-29 22:54:00
6:54 PM,91.0,63.0,39,30.03,10.0,Calm,Calm,-,N/A,,Clear,0,2013-08-29 23:54:00
7:54 PM,82.9,64.0,53,30.04,10.0,Calm,Calm,-,N/A,,Clear,0,2013-08-30 00:54:00
8:54 PM,81.0,66.0,60,30.06,10.0,Calm,Calm,-,N/A,,Clear,0,2013-08-30 01:54:00
9:54 PM,82.9,66.9,58,30.07,10.0,Calm,Calm,-,N/A,,Clear,0,2013-08-30 02:54:00
10:54 PM,82.0,68.0,62,30.08,10.0,Calm,Calm,-,N/A,,Clear,0,2013-08-30 03:54:00
11:54 PM,79.0,70.0,74,30.07,10.0,Calm,Calm,-,N/A,,Clear,0,2013-08-30 04:54:00